User: anonymous   Login
Location: Tyler Bend Campground
(35.9875°N, 92.7606°W)
Time: 12:05:19
(UTC-06:00)
Language:

Iridium 39 - Orbit

View from above orbital plane
View from above orbital plane
View from above satellite
View from above satellite

Ground track
Ground track

The orbit data is extracted from the following two-line orbital elements,

1 25042U 97069D   17059.52097152  .00000153  00000-0  37080-4 0  9998
2 25042  86.3885  65.5748 0017488 319.4657  40.5242 14.46131325 11011
Epoch (UTC): 28 February 2017 12:30:11
Eccentricity: 0.0017488
inclination: 86.3885°
perigee height: 726 km
apogee height: 751 km
right ascension of ascending node: 65.5748°
argument of perigee: 319.4657°
revolutions per day: 14.46131325
mean anomaly at epoch: 40.5242°
orbit number at epoch: 1101

The dashed part of the orbit path shows where the satellite is in the earth's shadow,  

DLR